KINEIS-1B

Last updated on Sun Apr 12 2026 00:02:47 GMT+0000 (Coordinated Universal Time)

1 60079U 24114A 26101.55048708 .00000792 00000+0 11033-3 0 9999 2 60079 97.9887 126.0459 0001532 351.6387 8.4799 14.80510605 97545
UTC large
Height (km)
Speed (km/s)
/
Latitude / Longitude
Inclination (degrees)
Orbital Period (minutes)
Azimuth
Elevation
Range (km)
Doppler Factor

Next 0 passes for location: London (51.5072 / 0.1276)

Sorry there are no passes over London.
KINEIS-1B